Location: Spring Creek
(38.2870°N, 100.2160°W)
Time: 23:40:45
(UTC+00:00)

Cosmos 1500 Rocket - Pass Details

Date: 08 May 2021
Orbit: 602 x 632 km, 82.5° (Epoch: 21 June)

Event Time Altitude Azimuth Distance (km) Brightness Sun altitude
Rises 02:16:04 0° 2° (N) 2,905 7.4 -7.5°
Reaches altitude 10° 02:18:29 10° 12° (NNE) 1,989 6.4 -7.9°
Maximum altitude 02:22:30 34° 77° (ENE) 1,017 4.3 -8.6°
Drops below altitude 10° 02:26:27 10° 143° (SE) 1,959 5.6 -9.3°
Enters shadow 02:26:29 10° 144° (SE) 1,968 5.6 -9.3°
